Weather in Kaftanchikovo

Russia / Tomsk District     56°20′38″N   84°52′02″E
temp.,
°C
wind,
m/s
gust,
m/s
humid.,
%
clouds,
%
prec.,
mm/h
press.,
hPa
HPBL,
m
18 april, sun
sun1801:00−3s3981100 0.0 1021275
04:00−2ssw31082100 0.0 1017442
07:00−1ssw41279100 0.0 1015585
10:00+3sw5116995 0.0 10131198
13:00+2wsw41094100 0.6 1012805
16:00+3sw3793100 0.8 1011696
19:00+2ssw51293100 2.2 1008866
22:00+2s51397100 0.3 1004772
19 april, mon
mon1901:00+2ssw51397100 1.3 999983
04:00+1wsw6129798 1.7 9961177
07:00−7nw91488100 3.1 10041142
10:00−8nw7127373 0.5 10131073
13:00−5nw6955100 0.5 10181660
16:00−6wnw6859100 0.0 10201872
19:00−6wnw5864100 0.1 10221808
22:00−7wnw4971100 0.1 10231227
20 april, tue
tue2001:00−7wnw477013 0.2 1024954
04:00−8wnw47769 0.0 1024764
07:00−9wnw377968 0.0 1026615
10:00−6wnw3564100 0.0 1026988
13:00−3wnw355095 0.0 10261357
16:00−1wnw454397 0.0 10251769
19:00−1w354889 0.0 10241597
22:00−4wsw266591 0.0 1024238
21 april, wed
wed2101:00−4s2668100 0.0 1023289
04:00−4sw3664100 0.0 1021873
07:00−4s3878100 0.0 1021774
10:00−2s3571100 0.1 1022923
13:00−1s3371100 0.3 10221048
16:00+1sse2259100 0.3 10231127
19:00+1ene225995 0.5 1025984
22:00−2ne268461 0.1 1027169
22 april, thu
thu2201:00−4nne27875 0.1 1029185
04:00−4nne268720 0.0 1031181
07:00−4nne39855 0.0 1034360
10:000ne475519 0.0 10361282
13:00+2ne4543100 0.1 10372097
16:00+3nne4640100 0.0 10392186
19:00+2nne466198 0.1 10411108
22:00−2n278229 0.1 1043182